DLH6NV EDDC-EDDM

Flight info

Callsign DLH6NV
Flight time 0h 37m
Altitude 30000
Route MAREM5W MAREM DCT VESUB T106 TUSTO T108 LANDU LANDU2B
Aircraft A319/M-SDE2E3FGIJ1LORWXYZ/HB1

Departure

Time 2026-05-06 08:30
Airport Dresden Airport (EDDC)

Arrival

Time 2026-05-06 09:07
Airport Munich Airport (EDDM)
Time Latitude Longitude Altitude Speed Heading
2026-05-06 08:03 51.12629 13.76401 753 ft 0 kts 130°
2026-05-06 08:23 51.12642 13.76374 754 ft 4 kts 118°
2026-05-06 08:23 51.12650 13.76336 755 ft 4 kts 79°
2026-05-06 08:23 51.12644 13.76314 755 ft 3 kts 43°
2026-05-06 08:23 51.12642 13.76311 756 ft 0 kts 41°
2026-05-06 08:25 51.12643 13.76311 755 ft 1 kts 41°
2026-05-06 08:25 51.12658 13.76333 755 ft 6 kts 41°
2026-05-06 08:25 51.12703 13.76395 755 ft 10 kts 41°
2026-05-06 08:26 51.12762 13.76466 754 ft 12 kts 19°
2026-05-06 08:26 51.12849 13.76473 752 ft 15 kts 33°
2026-05-06 08:26 51.12943 13.76597 749 ft 22 kts 42°
2026-05-06 08:26 51.13060 13.76764 748 ft 23 kts 41°
2026-05-06 08:27 51.13188 13.76941 743 ft 26 kts 40°
2026-05-06 08:27 51.13331 13.77134 739 ft 29 kts 41°
2026-05-06 08:27 51.13482 13.77345 728 ft 28 kts 41°
2026-05-06 08:27 51.13632 13.77549 719 ft 26 kts 41°
2026-05-06 08:28 51.13744 13.77703 717 ft 16 kts 35°
2026-05-06 08:28 51.13836 13.77643 717 ft 15 kts 312°
2026-05-06 08:28 51.13894 13.77530 721 ft 12 kts 309°
2026-05-06 08:28 51.13899 13.77432 722 ft 0 kts 219°
2026-05-06 08:29 51.13893 13.77424 722 ft 9 kts 219°
2026-05-06 08:30 51.13613 13.77049 733 ft 93 kts 221°
2026-05-06 08:30 51.12975 13.76152 923 ft 136 kts 224°
2026-05-06 08:30 51.12274 13.75109 1693 ft 139 kts 227°
2026-05-06 08:30 51.11559 13.74063 2433 ft 145 kts 227°
2026-05-06 08:31 51.10760 13.72897 2931 ft 167 kts 227°
2026-05-06 08:31 51.09846 13.71570 3388 ft 189 kts 226°
2026-05-06 08:31 51.08809 13.70083 3830 ft 213 kts 224°
2026-05-06 08:31 51.07639 13.68422 4426 ft 236 kts 224°
2026-05-06 08:32 51.06385 13.66649 5380 ft 244 kts 224°
2026-05-06 08:32 51.05093 13.64833 6366 ft 251 kts 224°
2026-05-06 08:32 51.03773 13.62993 7350 ft 254 kts 224°
2026-05-06 08:32 51.02348 13.61292 8334 ft 262 kts 212°
2026-05-06 08:33 51.00614 13.60273 9360 ft 271 kts 195°
2026-05-06 08:33 50.98697 13.60134 10283 ft 284 kts 181°
2026-05-06 08:33 50.96638 13.60335 10703 ft 308 kts 180°
2026-05-06 08:33 50.94446 13.60563 11337 ft 321 kts 180°
2026-05-06 08:34 50.92194 13.60803 12230 ft 327 kts 180°
2026-05-06 08:34 50.87610 13.61284 14012 ft 333 kts 180°
2026-05-06 08:34 50.85281 13.61521 14785 ft 337 kts 180°
2026-05-06 08:35 50.82925 13.61755 15558 ft 341 kts 180°
2026-05-06 08:35 50.80539 13.61985 16344 ft 346 kts 180°
2026-05-06 08:35 50.78122 13.62218 17119 ft 350 kts 180°
2026-05-06 08:35 50.75674 13.62460 17877 ft 354 kts 180°
2026-05-06 08:36 50.73201 13.62677 18573 ft 357 kts 183°
2026-05-06 08:36 50.70731 13.62332 19252 ft 357 kts 194°
2026-05-06 08:36 50.68342 13.61285 19948 ft 358 kts 200°
2026-05-06 08:36 50.65968 13.60087 20658 ft 360 kts 200°
2026-05-06 08:37 50.63566 13.58882 21365 ft 364 kts 200°
2026-05-06 08:37 50.61146 13.57671 22093 ft 366 kts 201°
2026-05-06 08:37 50.58704 13.56453 22770 ft 370 kts 201°
2026-05-06 08:37 50.56241 13.55226 23418 ft 373 kts 201°
2026-05-06 08:38 50.53757 13.53989 23965 ft 376 kts 201°
2026-05-06 08:38 50.51262 13.52747 24555 ft 377 kts 201°
2026-05-06 08:38 50.48757 13.51503 25122 ft 378 kts 201°
2026-05-06 08:38 50.46240 13.50260 25674 ft 380 kts 201°
2026-05-06 08:39 50.43709 13.49014 26209 ft 382 kts 201°
2026-05-06 08:39 50.41164 13.47762 26752 ft 384 kts 201°
2026-05-06 08:39 50.38605 13.46505 27283 ft 386 kts 201°
2026-05-06 08:39 50.36034 13.45243 27827 ft 388 kts 201°
2026-05-06 08:40 50.33448 13.43973 28348 ft 390 kts 201°
2026-05-06 08:40 50.30855 13.42697 28856 ft 393 kts 201°
2026-05-06 08:40 50.28242 13.41408 29358 ft 395 kts 201°
2026-05-06 08:40 50.25614 13.40111 29747 ft 397 kts 201°
2026-05-06 08:41 50.23005 13.38831 29806 ft 385 kts 201°
2026-05-06 08:41 50.18005 13.36385 29812 ft 372 kts 201°
2026-05-06 08:42 50.13082 13.33966 29808 ft 370 kts 201°
2026-05-06 08:42 50.08159 13.31566 29813 ft 371 kts 201°
2026-05-06 08:43 50.03236 13.29168 29810 ft 370 kts 201°
2026-05-06 08:43 49.98316 13.26772 29812 ft 370 kts 201°
2026-05-06 08:44 49.93398 13.24385 29814 ft 370 kts 201°
2026-05-06 08:44 49.88487 13.22007 29795 ft 369 kts 201°
2026-05-06 08:45 49.83574 13.19637 29801 ft 370 kts 201°
2026-05-06 08:45 49.78668 13.17278 29810 ft 369 kts 201°
2026-05-06 08:46 49.73761 13.14920 29814 ft 369 kts 201°
2026-05-06 08:46 49.68853 13.12572 29815 ft 369 kts 201°
2026-05-06 08:47 49.63950 13.10226 29794 ft 369 kts 201°
2026-05-06 08:47 49.59051 13.07883 29808 ft 368 kts 201°
2026-05-06 08:48 49.54153 13.05543 29805 ft 368 kts 201°
2026-05-06 08:48 49.49255 13.03217 29808 ft 368 kts 201°
2026-05-06 08:49 49.44366 13.00897 29789 ft 368 kts 201°
2026-05-06 08:49 49.39627 12.98061 29803 ft 364 kts 208°
2026-05-06 08:50 49.35061 12.94720 29806 ft 363 kts 208°
2026-05-06 08:50 49.30504 12.91401 29812 ft 362 kts 208°
2026-05-06 08:51 49.25949 12.88098 29810 ft 362 kts 208°
2026-05-06 08:51 49.21404 12.84812 29801 ft 361 kts 208°
2026-05-06 08:52 49.16873 12.81533 29807 ft 360 kts 208°
2026-05-06 08:52 49.12360 12.78262 29808 ft 359 kts 208°
2026-05-06 08:52 49.10106 12.76625 29578 ft 360 kts 208°
2026-05-06 08:53 49.07836 12.74981 28873 ft 362 kts 208°
2026-05-06 08:53 49.05557 12.73335 28179 ft 364 kts 208°
2026-05-06 08:53 49.03260 12.71684 27501 ft 365 kts 207°
2026-05-06 08:53 49.00973 12.70044 26836 ft 362 kts 207°
2026-05-06 08:54 48.98700 12.68417 26188 ft 360 kts 207°
2026-05-06 08:54 48.96443 12.66801 25570 ft 358 kts 207°
2026-05-06 08:54 48.94196 12.65193 24956 ft 356 kts 207°
2026-05-06 08:54 48.91960 12.63592 24354 ft 355 kts 207°
2026-05-06 08:55 48.89732 12.61996 23764 ft 353 kts 207°
2026-05-06 08:55 48.87604 12.60122 22734 ft 356 kts 214°
2026-05-06 08:55 48.85541 12.58000 21437 ft 362 kts 215°
2026-05-06 08:55 48.83460 12.55812 20570 ft 364 kts 216°
2026-05-06 08:56 48.81401 12.53629 19650 ft 360 kts 215°
2026-05-06 08:56 48.79355 12.51457 18668 ft 358 kts 215°
2026-05-06 08:56 48.77314 12.49303 17643 ft 357 kts 215°
2026-05-06 08:56 48.75282 12.47168 16636 ft 354 kts 215°
2026-05-06 08:57 48.73271 12.45065 15725 ft 349 kts 214°
2026-05-06 08:57 48.71288 12.42998 14840 ft 343 kts 214°
2026-05-06 08:57 48.69331 12.40968 13960 ft 339 kts 214°
2026-05-06 08:57 48.67371 12.39079 13351 ft 325 kts 205°
2026-05-06 08:58 48.65274 12.38032 12767 ft 313 kts 195°
2026-05-06 08:58 48.63182 12.37229 11987 ft 308 kts 194°
2026-05-06 08:58 48.61119 12.36444 11210 ft 305 kts 194°
2026-05-06 08:58 48.59073 12.35657 10458 ft 302 kts 194°
2026-05-06 08:59 48.57110 12.34896 10270 ft 281 kts 194°
2026-05-06 08:59 48.55252 12.34172 9811 ft 272 kts 194°
2026-05-06 08:59 48.53429 12.33444 9172 ft 270 kts 197°
2026-05-06 08:59 48.51773 12.32141 8569 ft 269 kts 213°
2026-05-06 09:00 48.50242 12.30518 8025 ft 268 kts 214°
2026-05-06 09:00 48.48730 12.28879 7474 ft 267 kts 214°
2026-05-06 09:00 48.47229 12.27244 6924 ft 266 kts 214°
2026-05-06 09:00 48.45731 12.25611 6378 ft 265 kts 214°
2026-05-06 09:01 48.44281 12.23906 5808 ft 265 kts 221°
2026-05-06 09:01 48.42973 12.21947 5254 ft 266 kts 224°
2026-05-06 09:01 48.41690 12.19963 5008 ft 260 kts 225°
2026-05-06 09:01 48.40473 12.18071 4998 ft 242 kts 224°
2026-05-06 09:02 48.39468 12.16090 5010 ft 239 kts 242°
2026-05-06 09:02 48.39037 12.13686 5020 ft 240 kts 262°
2026-05-06 09:02 48.38858 12.11210 4994 ft 232 kts 263°
2026-05-06 09:02 48.38691 12.08870 4913 ft 220 kts 262°
2026-05-06 09:03 48.38525 12.06624 4694 ft 213 kts 263°
2026-05-06 09:03 48.38364 12.04439 4400 ft 207 kts 263°
2026-05-06 09:03 48.38205 12.02309 4123 ft 202 kts 263°
2026-05-06 09:03 48.38051 12.00237 3853 ft 194 kts 263°
2026-05-06 09:04 48.37955 11.98941 3690 ft 184 kts 263°
2026-05-06 09:04 48.37776 11.96557 3393 ft 158 kts 263°
2026-05-06 09:04 48.37698 11.95512 3252 ft 146 kts 263°
2026-05-06 09:04 48.37588 11.94041 3064 ft 139 kts 264°
2026-05-06 09:05 48.37481 11.92620 2884 ft 135 kts 263°
2026-05-06 09:05 48.37375 11.91221 2706 ft 134 kts 264°
2026-05-06 09:05 48.37271 11.89830 2527 ft 134 kts 264°
2026-05-06 09:05 48.37166 11.88442 2341 ft 133 kts 264°
2026-05-06 09:06 48.37061 11.87059 2153 ft 133 kts 264°
2026-05-06 09:06 48.36955 11.85679 1965 ft 133 kts 261°
2026-05-06 09:06 48.36850 11.84305 1798 ft 132 kts 262°
2026-05-06 09:06 48.36754 11.82934 1634 ft 132 kts 260°
2026-05-06 09:07 48.36640 11.81575 1482 ft 124 kts 263°
2026-05-06 09:07 48.36565 11.80544 1478 ft 60 kts 263°
2026-05-06 09:07 48.36523 11.80024 1475 ft 41 kts 263°
2026-05-06 09:07 48.36425 11.79657 1483 ft 38 kts 232°
2026-05-06 09:08 48.36293 11.79384 1485 ft 27 kts 235°
2026-05-06 09:08 48.36127 11.79311 1471 ft 27 kts 172°
2026-05-06 09:08 48.35949 11.79344 1486 ft 23 kts 169°
2026-05-06 09:08 48.35802 11.79419 1481 ft 20 kts 135°
2026-05-06 09:09 48.35801 11.79630 1475 ft 21 kts 83°
2026-05-06 09:09 48.35818 11.79855 1479 ft 22 kts 83°
2026-05-06 09:09 48.35812 11.80044 1485 ft 17 kts 132°
2026-05-06 09:09 48.35694 11.80085 1486 ft 18 kts 162°
2026-05-06 09:10 48.35578 11.80110 1485 ft 9 kts 176°
2026-05-06 09:10 48.35553 11.80084 1486 ft 5 kts 261°
2026-05-06 09:10 48.35551 11.80025 1486 ft 6 kts 264°
2026-05-06 09:10 48.35549 11.79991 1486 ft 0 kts 263°